Regional Weather Roundup
Issued by NWS Newport/Morehead, NC

Current Version | Previous Version | Text Only | Print | Product List | Glossary On
Versions: 1 2 3 4 5 6 7 8 9 10 11 12 13 14 15 16 17 18 19 20 21 22 23 24 25 26 27 28 29 30 31 32 33 34 35 36 37 38 39 40 41 42 43 44 45 46 47 48 49 50
000
ASUS42 KMHX 180722
RWRMHX
WEATHER ROUNDUP FOR EASTERN NORTH CAROLINA
NATIONAL WEATHER SERVICE NEWPORT/MOREHEAD CITY NC
300 AM EDT FRI APR 18 2014

NOTE: "FAIR" INDICATES FEW OR NO CLOUDS BELOW 12,000 FEET
WITH NO SIGNIFICANT WEATHER AND/OR OBSTRUCTIONS TO VISIBILITY

NCZ015>017-031-032-045>047-102-103-180800-
NORTH COAST

CITY           SKY/WX    TMP DP  RH WIND       PRES   REMARKS
EDENTON        MOCLDY    44  39  84 N6        30.43F
ELIZABETH CITY CLOUDY    45  40  82 N16G24    30.43F
KITTY HAWK     CLOUDY    46  43  90 N10G18    30.39F
MANTEO         CLOUDY    46  44  90 NE16G22   30.39F

$$

NCZ045>047-081-094-103-104-180800-
CENTRAL COAST

CITY           SKY/WX    TMP DP  RH WIND       PRES   REMARKS
FRISCO         CLOUDY    49  47  93 NE15G24   30.35F
SWANQUARTER      N/A     46 N/A N/A N14       30.36S

$$

NCZ095-097-098-100-101-180800-
SOUTHERN COAST

CITY           SKY/WX    TMP DP  RH WIND       PRES   REMARKS
BEAUFORT       CLEAR     48  45  89 N14       30.35F
CEDAR ISLAND     N/A     52 N/A N/A VRB22     30.41F
JACKSONVILLE   PTCLDY    44  42  93 N10       30.38F
NEWPORT          N/A     46  43  87 N8          N/A
PINEY ISLAND   PTSUNNY   51  46  83 N14G23    30.37F
WILMINGTON     MOCLDY    47  40  76 N10       30.37F


$$

NCZ011>013-027>030-043-044-078>080-089-090>093-098-180800-
COASTAL PLAIN

CITY           SKY/WX    TMP DP  RH WIND       PRES   REMARKS
AHOSKIE        CLEAR     41  36  83 N6        30.45S
CLINTON        CLEAR     45  40  85 NE5       30.42R
ELIZABETHTOWN  PTCLDY    47  40  78 CALM      30.40S
GOLDSBORO      CLEAR     42  40  93 NE6       30.40F
GREENVILLE     PTCLDY    39  37  93 N5        30.42F
HAVELOCK       PTCLDY    46  41  82 NE16      30.39F
KENANSVILLE    CLEAR     43  39  85 N5        30.42F
KINSTON        CLOUDY    42  39  89 N7        30.42F
NEW BERN       CLOUDY    47  41  80 NE12      30.41F
RICHLANDS      PTCLDY    43  37  81 N9        30.41R
ROANOKE RAPIDS NOT AVBL
ROCKY MOUNT      N/A    N/A N/A N/A MISG      30.44F
WASHINGTON     CLOUDY    43  38  84 N9        30.42F
WHITEVILLE     PTCLDY    49  42  78 NE6       30.37F

$$

AMZ130-135-150-152-154-156-158-170-250-252-270-ANZ085-086-088-633-658-670-180800-
MARINE OBSERVATIONS

STATION/POSITION TIME  TEMP    WIND        PRES    WAVE   SWELL
                       AIR SEA DIR/SP/G            HT/PER HT/PER
                 (UTC) (F)     (DEG/KT/KT) (MB)    (FT/S) (FT/S)
CHESAPEAKE LIGHT 0700   43      30/ 18/ 20 1031.0
BUOY 44014       0700   49 51   20/ 19/ 21 1028.7   10/ 9   7/ 9
DUCK             0700   46 51  360/ 18/ 22 1028.3
2E DUCK          0700      51                N/A     7/ 9   3/11
OREGON INLET     0700   46 51  360/ 16/ 21 1028.6
BUOY 44095       0700      47                N/A    10/10   3/11
HATTERAS CG      0700   50 56   10/ 15/ 22 1027.8
DIAMOND BUOY     NOT AVBL
CAPE LOOKOUT     0700   51      20/ 19/ 27 1027.0
BEAUFORT LAB     0700   49 59   10/ 14/ 18 1027.0
30 SE NEW RIVER  0700   53 62   30/ 23/ 27 1026.8    7/ 7   3/10
5 SE WRIGHTSVILL 0700   51 59   30/ 17/ 19 1028.1
FRYING PAN BUOY  0700   58 64   50/ 19/ 25 1026.4    8/ 9   5/ 9
BUOY 41001       NOT AVBL
BUOY 41002       NOT AVBL
BUOY 41004       NOT AVBL

$$



USA.gov is the U.S. government's official web portal to all federal, state and local government web resources and services.